This demonstration page uses our WeatherBlox Daily Observations layout. Learn more.

Left ArrowRight Arrow

36.19886, -115.1175

Hourly Observations for December 16, 2015

Temp ( °F °C ) Dew Point ( °F °C ) Humidity (%) Winds ( mph kmh ) Pressure ( in mb ) Visibility ( mi km ) Precip ( " mm )
12:53 am 00:53 Clear 38 3.3 15 -9.4 39 39 N 14 22 30.17 1022 10 16 0.00 0.00
1:53 am 01:53 Clear 37 2.8 15 -9.4 41 41 N 13 20 30.18 1022 10 16 0.00 0.00
2:53 am 02:53 Clear 38 3.3 14 -10 37 37 NNW 15 24 30.18 1022 10 16 0.00 0.00
3:53 am 03:53 Clear 36 2.2 15 -9.4 42 42 NNW 14 22 30.18 1022 10 16 0.00 0.00
4:53 am 04:53 Clear 36 2.2 15 -9.4 42 42 N 13 20 30.20 1023 10 16 0.00 0.00
5:53 am 05:53 Clear 36 2.2 14 -10 40 40 NNW 15 24 30.22 1023 10 16 0.00 0.00
6:53 am 06:53 Sunny 36 2.2 14 -10 40 40 NNW 16 26 30.22 1024 10 16 0.00 0.00
7:53 am 07:53 Sunny 38 3.3 14 -10 37 37 NW 17 28 30.25 1024 10 16 0.00 0.00
8:53 am 08:53 Sunny 41 5 15 -9.4 35 35 N 13 20 30.27 1025 10 16 0.00 0.00
9:53 am 09:53 Sunny 44 6.7 14 -10 30 30 NNW 13 20 30.26 1025 10 16 0.00 0.00
10:53 am 10:53 Sunny 45 7.2 14 -10 29 29 NNE 8 13 30.24 1024 10 16 0.00 0.00
11:53 am 11:53 Sunny 46 7.8 15 -9.4 29 29 VRB 3 6 30.22 1023 10 16 0.00 0.00
12:53 pm 12:53 Sunny 48 8.9 11 -11.7 22 22 N 7 11 30.20 1023 10 16 0.00 0.00
1:53 pm 13:53 Sunny 49 9.4 13 -10.6 23 23 NNW 7 11 30.19 1022 10 16 0.00 0.00
2:53 pm 14:53 Sunny 50 10 10 -12.2 20 20 N 5 7 30.18 1022 10 16 0.00 0.00
3:53 pm 15:53 Sunny 49 9.4 12 -11.1 22 22 NNE 5 7 30.18 1022 10 16 0.00 0.00
4:53 pm 16:53 Clear 45 7.2 12 -11.1 26 26 SE 5 7 30.19 1022 10 16 0.00 0.00
5:53 pm 17:53 Clear 43 6.1 12 -11.1 28 28 SE 5 7 30.20 1023 10 16 0.00 0.00
6:53 pm 18:53 Clear 42 5.6 14 -10 32 32 NE 3 6 30.22 1024 10 16 0.00 0.00
7:53 pm 19:53 Clear 41 5 14 -10 33 33 N 3 6 30.23 1024 10 16 0.00 0.00
8:53 pm 20:53 Clear 38 3.3 14 -10 37 37 NW 3 6 30.24 1024 10 16 0.00 0.00
9:53 pm 21:53 Clear 37 2.8 14 -10 39 39 NNW 6 9 30.23 1024 10 16 0.00 0.00

Powered by AerisWeather